Location: ????????
(55.6333°N, 37.7000°E)
Time: 16:54:39
(UTC+00:00)

Cosmos 2219 Rocket - Pass Details

Date: 19 May 2025
Orbit: 828 x 844 km, 71.0° (Epoch: 20 June)

Event Time Altitude Azimuth Distance (km) Brightness Sun altitude
Rises 22:21:10 0° 323° (NW) 3,401 6.0 -13.5°
Reaches altitude 10° 22:23:45 10° 316° (NW) 2,459 5.1 -13.4°
Maximum altitude 22:28:55 38° 250° (WSW) 1,248 2.8 -13.2°
Enters shadow 22:32:26 19° 192° (SSW) 1,907 3.4 -13.1°
